When you browse on this site, cookies collect data to enhance your experience and personalize the content and advertising you see.
Visit our Privacy Policy to learn more. By continuing to use the site, you agree to this use of cookies and data.
  • In United Kingdom
  • List of Countries
  • For 7 days
  • Water Temperature
  • Weather Map
  • Weather Widgets
  • user-avatar
    Login

    Hourly Weather Albany

    Today, 8 December, Sunday

    Time Temperature Precipitation Wind Pressure Humidity
    00:00 +16°C° 0 mm 5 mps 755 mmHg 78%
    01:00 +16°C° 0 mm 5 mps 755 mmHg 77%
    02:00 +15°C° 0 mm 4 mps 756 mmHg 78%
    03:00 +14°C° 0 mm 5 mps 756 mmHg 81%
    04:00 +14°C° 0 mm 5 mps 756 mmHg 85%
    05:00 +13°C° 0 mm 5 mps 757 mmHg 88%
    06:00 +14°C° 0.1 mm 5 mps 757 mmHg 79%
    07:00 +16°C° 0.1 mm 6 mps 758 mmHg 71%
    08:00 +17°C° 0 mm 7 mps 759 mmHg 61%
    09:00 +19°C° 0 mm 6 mps 759 mmHg 57%
    10:00 +20°C° 0 mm 6 mps 760 mmHg 53%
    11:00 +20°C° 0 mm 5 mps 760 mmHg 49%
    12:00 +20°C° 0 mm 5 mps 760 mmHg 49%
    13:00 +20°C° 0 mm 5 mps 760 mmHg 48%
    14:00 +20°C° 0 mm 5 mps 760 mmHg 47%
    15:00 +20°C° 0 mm 5 mps 760 mmHg 49%
    16:00 +19°C° 0 mm 5 mps 760 mmHg 52%
    17:00 +17°C° 0 mm 5 mps 760 mmHg 54%
    18:00 +17°C° 0 mm 4 mps 761 mmHg 60%
    19:00 +14°C° 0 mm 3 mps 761 mmHg 66%
    20:00 +14°C° 0 mm 2 mps 762 mmHg 71%
    21:00 +13°C° 0 mm 2 mps 762 mmHg 74%
    22:00 +13°C° 0 mm 1 mps 763 mmHg 77%
    23:00 +12°C° 0 mm 1 mps 763 mmHg 79%

    Tomorrow, 9 December, Monday

    Time Temperature Precipitation Wind Pressure Humidity
    00:00 +12°C° 0 mm 1 mps 763 mmHg 81%
    01:00 +11°C° 0 mm 1 mps 762 mmHg 82%
    02:00 +11°C° 0 mm 1 mps 762 mmHg 83%
    03:00 +11°C° 0 mm 1 mps 762 mmHg 85%
    04:00 +10°C° 0 mm 1 mps 763 mmHg 86%
    05:00 +10°C° 0 mm 1 mps 763 mmHg 88%
    06:00 +13°C° 0 mm 1 mps 763 mmHg 76%
    07:00 +16°C° 0 mm 1 mps 763 mmHg 64%
    08:00 +18°C° 0 mm 0 mps 764 mmHg 52%
    09:00 +22°C° 0 mm 1 mps 763 mmHg 49%
    10:00 +23°C° 0 mm 2 mps 763 mmHg 46%
    11:00 +24°C° 0 mm 2 mps 763 mmHg 43%
    12:00 +24°C° 0 mm 3 mps 763 mmHg 44%
    13:00 +23°C° 0 mm 4 mps 763 mmHg 45%
    14:00 +22°C° 0 mm 4 mps 762 mmHg 46%
    15:00 +22°C° 0 mm 4 mps 762 mmHg 49%
    16:00 +21°C° 0 mm 4 mps 762 mmHg 52%
    17:00 +20°C° 0 mm 4 mps 762 mmHg 56%
    18:00 +18°C° 0 mm 3 mps 762 mmHg 63%
    19:00 +17°C° 0 mm 3 mps 763 mmHg 69%
    20:00 +15°C° 0 mm 2 mps 763 mmHg 76%
    21:00 +15°C° 0 mm 2 mps 763 mmHg 78%
    22:00 +14°C° 0 mm 2 mps 764 mmHg 81%
    23:00 +14°C° 0 mm 2 mps 764 mmHg 83%

    Day after tomorrow, 10 December, Tuesday

    Time Temperature Precipitation Wind Pressure Humidity
    00:00 +13°C° 0 mm 2 mps 763 mmHg 85%
    01:00 +13°C° 0 mm 2 mps 763 mmHg 86%
    02:00 +13°C° 0 mm 2 mps 763 mmHg 88%
    03:00 +12°C° 0 mm 2 mps 763 mmHg 88%
    04:00 +12°C° 0 mm 2 mps 763 mmHg 88%
    05:00 +12°C° 0 mm 1 mps 763 mmHg 89%
    06:00 +15°C° 0 mm 1 mps 763 mmHg 77%
    07:00 +18°C° 0 mm 1 mps 763 mmHg 66%
    08:00 +21°C° 0 mm 1 mps 763 mmHg 55%
    09:00 +21°C° 0 mm 2 mps 763 mmHg 52%
    10:00 +22°C° 0 mm 3 mps 763 mmHg 49%
    11:00 +25°C° 0 mm 3 mps 763 mmHg 46%
    12:00 +25°C° 0 mm 4 mps 763 mmHg 47%
    13:00 +23°C° 0 mm 5 mps 762 mmHg 48%
    14:00 +23°C° 0 mm 5 mps 762 mmHg 49%
    15:00 +22°C° 0 mm 5 mps 762 mmHg 53%
    16:00 +21°C° 0 mm 5 mps 762 mmHg 56%
    17:00 +20°C° 0 mm 5 mps 762 mmHg 60%
    18:00 +19°C° 0 mm 5 mps 762 mmHg 67%
    19:00 +17°C° 0 mm 5 mps 763 mmHg 74%
    20:00 +15°C° 0 mm 4 mps 763 mmHg 80%
    21:00 +15°C° 0 mm 4 mps 763 mmHg 83%
    22:00 +15°C° 0 mm 4 mps 763 mmHg 85%
    23:00 +15°C° 0 mm 4 mps 763 mmHg 87%

    11 December, Wednesday

    Time Temperature Precipitation Wind Pressure Humidity
    00:00 +14°C° 0 mm 4 mps 763 mmHg 88%
    01:00 +14°C° 0 mm 4 mps 763 mmHg 90%
    02:00 +14°C° 0 mm 4 mps 762 mmHg 91%
    03:00 +13°C° 0 mm 3 mps 763 mmHg 91%
    04:00 +13°C° 0 mm 3 mps 763 mmHg 92%
    05:00 +12°C° 0 mm 3 mps 764 mmHg 93%
    06:00 +16°C° 0 mm 3 mps 764 mmHg 82%
    07:00 +18°C° 0 mm 3 mps 764 mmHg 72%
    08:00 +20°C° 0 mm 3 mps 764 mmHg 62%
    09:00 +22°C° 0 mm 4 mps 764 mmHg 56%
    10:00 +23°C° 0 mm 4 mps 764 mmHg 50%
    11:00 +26°C° 0 mm 5 mps 764 mmHg 45%
    12:00 +25°C° 0 mm 5 mps 764 mmHg 46%
    13:00 +24°C° 0 mm 6 mps 763 mmHg 47%
    14:00 +24°C° 0 mm 6 mps 763 mmHg 48%
    15:00 +23°C° 0 mm 7 mps 763 mmHg 52%
    16:00 +22°C° 0 mm 7 mps 763 mmHg 57%
    17:00 +21°C° 0 mm 7 mps 763 mmHg 61%
    18:00 +19°C° 0 mm 6 mps 763 mmHg 69%
    19:00 +17°C° 0 mm 6 mps 764 mmHg 77%
    20:00 +15°C° 0 mm 5 mps 764 mmHg 85%
    21:00 +15°C° 0 mm 5 mps 764 mmHg 86%
    22:00 +15°C° 0 mm 5 mps 764 mmHg 88%
    23:00 +14°C° 0 mm 5 mps 764 mmHg 89%

    12 December, Thursday

    Time Temperature Precipitation Wind Pressure Humidity
    00:00 +14°C° 0 mm 5 mps 764 mmHg 90%
    01:00 +14°C° 0 mm 5 mps 764 mmHg 91%
    02:00 +14°C° 0 mm 5 mps 763 mmHg 92%
    03:00 +14°C° 0 mm 5 mps 763 mmHg 93%
    04:00 +13°C° 0 mm 5 mps 764 mmHg 93%
    05:00 +13°C° 0 mm 5 mps 764 mmHg 94%
    06:00 +15°C° 0 mm 5 mps 764 mmHg 81%
    07:00 +17°C° 0 mm 5 mps 764 mmHg 68%
    08:00 +21°C° 0 mm 5 mps 764 mmHg 55%
    09:00 +23°C° 0 mm 5 mps 764 mmHg 46%
    10:00 +27°C° 0 mm 5 mps 763 mmHg 36%
    11:00 +29°C° 0 mm 5 mps 763 mmHg 27%
    12:00 +30°C° 0 mm 6 mps 762 mmHg 28%
    13:00 +30°C° 0 mm 6 mps 762 mmHg 30%
    14:00 +30°C° 0 mm 6 mps 761 mmHg 31%
    15:00 +29°C° 0 mm 7 mps 761 mmHg 37%
    16:00 +27°C° 0 mm 7 mps 761 mmHg 42%
    17:00 +24°C° 0 mm 7 mps 761 mmHg 48%
    18:00 +22°C° 0 mm 7 mps 761 mmHg 55%
    19:00 +21°C° 0 mm 7 mps 761 mmHg 62%
    20:00 +19°C° 0 mm 6 mps 761 mmHg 69%
    21:00 +17°C° 0 mm 6 mps 762 mmHg 72%
    22:00 +17°C° 0 mm 6 mps 762 mmHg 75%
    23:00 +16°C° 0 mm 6 mps 762 mmHg 77%

    13 December, Friday

    Time Temperature Precipitation Wind Pressure Humidity
    00:00 +16°C° 0 mm 5 mps 761 mmHg 77%
    01:00 +16°C° 0 mm 5 mps 761 mmHg 77%
    02:00 +15°C° 0 mm 5 mps 760 mmHg 77%
    03:00 +15°C° 0 mm 4 mps 760 mmHg 75%
    04:00 +15°C° 0 mm 4 mps 760 mmHg 74%
    05:00 +16°C° 0 mm 3 mps 760 mmHg 72%
    06:00 +19°C° 0 mm 3 mps 760 mmHg 59%
    07:00 +22°C° 0 mm 3 mps 760 mmHg 47%
    08:00 +27°C° 0 mm 3 mps 760 mmHg 34%
    09:00 +30°C° 0 mm 3 mps 760 mmHg 29%
    10:00 +34°C° 0 mm 3 mps 760 mmHg 24%
    11:00 +37°C° 0 mm 3 mps 760 mmHg 19%
    12:00 +36°C° 0 mm 3 mps 759 mmHg 21%
    13:00 +35°C° 0 mm 4 mps 759 mmHg 24%
    14:00 +34°C° 0 mm 5 mps 758 mmHg 26%
    15:00 +33°C° 0 mm 4 mps 758 mmHg 28%
    16:00 +32°C° 0 mm 4 mps 758 mmHg 29%
    17:00 +30°C° 0 mm 3 mps 758 mmHg 30%
    18:00 +28°C° 0 mm 3 mps 758 mmHg 36%
    19:00 +25°C° 0 mm 2 mps 759 mmHg 42%
    20:00 +23°C° 0 mm 2 mps 759 mmHg 48%
    21:00 +21°C° 0 mm 2 mps 759 mmHg 47%
    22:00 +21°C° 0 mm 2 mps 759 mmHg 47%
    23:00 +21°C° 0 mm 2 mps 759 mmHg 46%
    Show more